SCOUT A R/B

Satellite information

Favourite Embed

Satellite Type and Status

ROCKET BODYIN ORBIT

Key statistics

Satellite SCOUT A R/B at a glance.

Uptime

21809

Days in orbit

Revolutions

≈ 13.8

Per day

Orbit

LEO

Low Earth Orbit

Inclination

89.1

Latest

Satellite identification and parameters

Extended collection of information and parameters for SCOUT A R/B.

Object identification

Identified? True

Debris? False

Object name: SCOUT A R/B

International designator: 1965-109B

Object number (NORAD): 1865

Object ID (CCSDS): 1865

Country: UNITED STATES OF AMERICA (US)

Current information (Y/N): Y

RCS size: MEDIUM

Orbital parameters

Period: 104.594 minutes

Inclination: 89.0593 deg

SMA: 7353.57 km

Apoapsis: 1058.85 km

Periapsis: 892.019 km

RAAN: 277.0363 deg

Eccentricy: 0.01134353

Argument of periapsis: 121.1673 deg

Mean anomaly: 240.0675 deg

Mean motion: 13.76751123 rev/day

Mean motion (dot): 0.00000179 rev/day2

B* drag term: 0.00015980189 1/REarth

Two-line elements (TLE)

Creation date: Sept. 7, 2025, 3:09 a.m.

Reference frame: TEME

Reference center: EARTH

Epoch: Sept. 6, 2025, 7:16 p.m. UTC

TLE line 0: 0 SCOUT A R/B

TLE line 1: 1 01865U 65109B 25249.80302190 .00000179 00000-0 15980-3 0 9999

TLE line 2: 2 01865 89.0593 277.0363 0113435 121.1673 240.0675 13.76751123994633

Live tracking on map

Real-time ground track for satellite SCOUT A R/B.

In-orbit conjunctions

A list of the most updated potential collisions computed for object SCOUT A R/B.

Target Orbit TCA Probability of collision Miss distance Type
CZ-6A DEB SSO 2025-01-31 13:25:06 0.0003093127 134.0 (m) DEBRIS
CZ-6A DEB LEO 2025-01-20 02:43:21 0.0001693331 862.0 (m) DEBRIS
METEOR 2-19 LEO 2024-10-15 18:30:39 0.0006448582 52.0 (m) PAYLOAD

Associated space launch

The Transit-O series of satellites that closely followed the design of Transit 5C-1 were also called “Oscars” (Oscar is the phonetic alphabet for “O”, i. e., operational). They were also called NNS (Navy Navigation Satellite) or shortened NavSat.

SCOUT A R/B was lifted into orbit during the mission ‘Scout A | Transit-O 6’, on board a Scout A space rocket.

The launch took place on Dec. 22, 1965, 4:33 a.m. from Space Launch Complex 5.

For more information about the launch, click the button.

Launch to space Scout A | Transit-O 6
Scout A | Transit-O 6

Agency: N/A

Status: Launch Successful

Launch date: Dec. 22, 1965, 4:33 a.m. UTC

Rocket: Scout A

Launch pad: Space Launch Complex 5

Location: Vandenberg SFB, CA, USA

...

Latest news about this satellite

There are no fresh news available about this satellite. Check back as we update our databases every day.


Newsletter sign-up

Weekly statistics, charts and insights to help you stay on top of the space industry.